TimeEDT,TemperatureF,Dew PointF,Humidity,Sea Level PressureIn,VisibilityMPH,Wind Direction,Wind SpeedMPH,Gust SpeedMPH,PrecipitationIn,Events,Conditions,WindDirDegrees,DateUTC
12:54 AM,39.0,36.0,89,29.74,5.0,North,3.5,-,0.13,Rain,Light Rain,350,2013-04-01 04:54:00
1:27 AM,39.2,37.4,93,29.71,7.0,Calm,Calm,-,0.04,Rain,Light Rain,0,2013-04-01 05:27:00
1:34 AM,39.2,37.4,93,29.71,6.0,Calm,Calm,-,0.05,Rain,Light Rain,0,2013-04-01 05:34:00
1:54 AM,39.0,36.0,89,29.71,7.0,NNE,3.5,-,0.06,Rain,Light Rain,20,2013-04-01 05:54:00
3:24 AM,37.4,35.6,93,29.66,9.0,Calm,Calm,-,0.01,Rain,Light Rain,0,2013-04-01 07:24:00
3:54 AM,37.0,35.1,93,29.65,9.0,Calm,Calm,-,0.02,Rain,Light Rain,0,2013-04-01 07:54:00
4:51 AM,35.6,33.8,93,29.62,7.0,ENE,3.5,-,0.00,,Overcast,70,2013-04-01 08:51:00
5:54 AM,36.0,33.1,89,29.64,10.0,NE,3.5,-,N/A,,Overcast,50,2013-04-01 09:54:00
6:37 AM,35.6,33.8,93,29.64,5.0,Calm,Calm,-,N/A,,Overcast,0,2013-04-01 10:37:00
6:49 AM,35.6,33.8,93,29.64,6.0,Calm,Calm,-,N/A,,Overcast,0,2013-04-01 10:49:00
6:54 AM,35.1,33.1,92,29.65,7.0,Calm,Calm,-,N/A,,Overcast,0,2013-04-01 10:54:00
7:25 AM,35.6,33.8,93,29.64,7.0,Calm,Calm,-,N/A,,Overcast,0,2013-04-01 11:25:00
7:34 AM,35.6,33.8,93,29.64,7.0,Calm,Calm,-,N/A,,Overcast,0,2013-04-01 11:34:00
7:54 AM,36.0,34.0,93,29.65,7.0,Calm,Calm,-,N/A,,Overcast,0,2013-04-01 11:54:00
8:02 AM,35.6,33.8,93,29.63,9.0,Calm,Calm,-,N/A,,Overcast,0,2013-04-01 12:02:00
8:17 AM,35.6,33.8,93,29.64,9.0,Calm,Calm,-,N/A,,Overcast,0,2013-04-01 12:17:00
9:43 AM,39.2,37.4,93,29.59,10.0,Calm,Calm,-,N/A,,Overcast,0,2013-04-01 13:43:00
9:54 AM,41.0,36.0,82,29.60,10.0,Calm,Calm,-,N/A,,Overcast,0,2013-04-01 13:54:00
10:43 AM,42.8,37.4,81,29.58,10.0,SSE,3.5,-,N/A,,Overcast,160,2013-04-01 14:43:00
10:54 AM,44.1,37.9,79,29.58,10.0,SSE,4.6,-,N/A,,Overcast,160,2013-04-01 14:54:00
11:03 AM,44.6,37.4,76,29.57,10.0,SSE,5.8,-,N/A,,Overcast,160,2013-04-01 15:03:00
11:37 AM,44.6,39.2,81,29.56,10.0,SSE,5.8,-,N/A,,Overcast,150,2013-04-01 15:37:00
12:54 PM,50.0,39.0,66,29.53,10.0,SE,6.9,-,N/A,,Mostly Cloudy,140,2013-04-01 16:54:00
3:54 PM,43.0,28.0,56,29.62,10.0,WNW,13.8,27.6,N/A,,Overcast,290,2013-04-01 19:54:00
4:54 PM,41.0,24.1,51,29.66,10.0,West,17.3,27.6,N/A,,Mostly Cloudy,280,2013-04-01 20:54:00
5:54 PM,39.9,17.1,40,29.68,10.0,West,13.8,25.3,N/A,,Mostly Cloudy,260,2013-04-01 21:54:00
7:54 PM,35.1,8.1,33,29.74,10.0,West,15.0,25.3,N/A,,Clear,260,2013-04-01 23:54:00
8:54 PM,33.1,9.0,37,29.77,10.0,WNW,11.5,23.0,N/A,,Clear,290,2013-04-02 00:54:00
9:54 PM,32.0,10.0,40,29.79,10.0,West,8.1,19.6,N/A,,Clear,280,2013-04-02 01:54:00
10:54 PM,30.9,9.0,40,29.81,10.0,West,16.1,24.2,N/A,,Clear,280,2013-04-02 02:54:00
11:54 PM,30.0,10.0,43,29.80,10.0,Calm,Calm,-,N/A,,Overcast,0,2013-04-02 03:54:00